Year,Month,Day,Hour,Minute,Value (Times are PST for windspeed in km/hr)
2010,01,18,00,00,5.30
2010,01,18,00,01,9.10
2010,01,18,00,02,6.70
2010,01,18,00,03,6.00
2010,01,18,00,04,7.20
2010,01,18,00,05,5.00
2010,01,18,00,06,8.50
2010,01,18,00,07,3.70
2010,01,18,00,08,6.00
2010,01,18,00,09,11.90
2010,01,18,00,10,7.50
2010,01,18,00,11,7.30
2010,01,18,00,12,9.20
2010,01,18,00,13,10.30
2010,01,18,00,14,13.00
2010,01,18,00,15,8.10
2010,01,18,00,16,9.00
2010,01,18,00,17,5.50
2010,01,18,00,18,11.90
2010,01,18,00,19,14.00
2010,01,18,00,20,11.40
2010,01,18,00,21,13.00
2010,01,18,00,22,11.80
2010,01,18,00,23,6.90
2010,01,18,00,24,5.20
2010,01,18,00,25,7.50
2010,01,18,00,26,11.40
2010,01,18,00,27,11.70
2010,01,18,00,28,11.90
2010,01,18,00,29,14.60
2010,01,18,00,30,10.20
2010,01,18,00,31,14.70
2010,01,18,00,32,11.10
2010,01,18,00,33,10.40
2010,01,18,00,34,10.90
2010,01,18,00,35,6.10
2010,01,18,00,36,12.00
2010,01,18,00,37,8.40
2010,01,18,00,38,9.20
2010,01,18,00,39,9.20
2010,01,18,00,40,6.00
2010,01,18,00,41,8.00
2010,01,18,00,42,6.00
2010,01,18,00,43,7.30
2010,01,18,00,44,6.80
2010,01,18,00,45,7.60
2010,01,18,00,46,9.70
2010,01,18,00,47,9.30
2010,01,18,00,48,9.70
2010,01,18,00,49,10.70
2010,01,18,00,50,12.20
2010,01,18,00,51,9.50
2010,01,18,00,52,10.70
2010,01,18,00,53,8.90
2010,01,18,00,54,7.00
2010,01,18,00,55,10.30
2010,01,18,00,56,6.60
2010,01,18,00,57,11.70
2010,01,18,00,58,9.30
2010,01,18,00,59,9.80
2010,01,18,01,00,8.50
2010,01,18,01,01,7.70
2010,01,18,01,02,4.40
2010,01,18,01,03,6.70
2010,01,18,01,04,7.80
2010,01,18,01,05,11.30
2010,01,18,01,06,9.70
2010,01,18,01,07,8.30
2010,01,18,01,08,7.50
2010,01,18,01,09,6.70
2010,01,18,01,10,9.90
2010,01,18,01,11,11.70
2010,01,18,01,12,10.00
2010,01,18,01,13,6.30
2010,01,18,01,14,6.40
2010,01,18,01,15,11.20
2010,01,18,01,16,15.90
2010,01,18,01,17,14.00
2010,01,18,01,18,11.60
2010,01,18,01,19,12.30
2010,01,18,01,20,13.10
2010,01,18,01,21,8.50
2010,01,18,01,22,9.70
2010,01,18,01,23,8.90
2010,01,18,01,24,12.10
2010,01,18,01,25,7.60
2010,01,18,01,26,11.50
2010,01,18,01,27,15.20
2010,01,18,01,28,14.10
2010,01,18,01,29,12.80
2010,01,18,01,30,11.30
2010,01,18,01,31,10.30
2010,01,18,01,32,16.70
2010,01,18,01,33,10.40
2010,01,18,01,34,10.60
2010,01,18,01,35,12.20
2010,01,18,01,36,13.00
2010,01,18,01,37,10.50
2010,01,18,01,38,11.70
2010,01,18,01,39,10.30
2010,01,18,01,40,7.40
2010,01,18,01,41,10.10
2010,01,18,01,42,7.50
2010,01,18,01,43,9.10
2010,01,18,01,44,12.80
2010,01,18,01,45,10.00
2010,01,18,01,46,9.80
2010,01,18,01,47,9.50
2010,01,18,01,48,14.30
2010,01,18,01,49,11.30
2010,01,18,01,50,9.10
2010,01,18,01,51,14.60
2010,01,18,01,52,12.30
2010,01,18,01,53,9.10
2010,01,18,01,54,12.10
2010,01,18,01,55,14.80
2010,01,18,01,56,14.70
2010,01,18,01,57,14.30
2010,01,18,01,58,13.50
2010,01,18,01,59,10.90
2010,01,18,02,00,11.70
2010,01,18,02,01,11.60
2010,01,18,02,02,13.60
2010,01,18,02,03,12.20
2010,01,18,02,04,6.40
2010,01,18,02,05,6.60
2010,01,18,02,06,6.40
2010,01,18,02,07,6.50
2010,01,18,02,08,7.10
2010,01,18,02,09,7.30
2010,01,18,02,10,8.00
2010,01,18,02,11,10.00
2010,01,18,02,12,9.20
2010,01,18,02,13,9.70
2010,01,18,02,14,7.90
2010,01,18,02,15,6.40
2010,01,18,02,16,14.70
2010,01,18,02,17,8.10
2010,01,18,02,18,15.70
2010,01,18,02,19,10.60
2010,01,18,02,20,9.70
2010,01,18,02,21,13.60
2010,01,18,02,22,12.30
2010,01,18,02,23,15.00
2010,01,18,02,24,12.50
2010,01,18,02,25,13.20
2010,01,18,02,26,10.70
2010,01,18,02,27,9.50
2010,01,18,02,28,13.10
2010,01,18,02,29,11.80
2010,01,18,02,30,10.50
2010,01,18,02,31,13.20
2010,01,18,02,32,12.40
2010,01,18,02,33,12.20
2010,01,18,02,34,14.10
2010,01,18,02,35,11.90
2010,01,18,02,36,12.80
2010,01,18,02,37,11.10
2010,01,18,02,38,23.90
2010,01,18,02,39,15.80
2010,01,18,02,40,8.60
2010,01,18,02,41,10.40
2010,01,18,02,42,12.00
2010,01,18,02,43,12.20
2010,01,18,02,44,12.90
2010,01,18,02,45,13.30
2010,01,18,02,46,13.30
2010,01,18,02,47,14.00
2010,01,18,02,48,17.90
2010,01,18,02,49,10.80
2010,01,18,02,50,16.30
2010,01,18,02,51,11.80
2010,01,18,02,52,12.50
2010,01,18,02,53,13.90
2010,01,18,02,54,17.80
2010,01,18,02,55,21.70
2010,01,18,02,56,21.20
2010,01,18,02,57,15.80
2010,01,18,02,58,26.00
2010,01,18,02,59,30.80
2010,01,18,03,00,26.10
2010,01,18,03,01,23.30
2010,01,18,03,02,23.70
2010,01,18,03,03,20.90
2010,01,18,03,04,28.20
2010,01,18,03,05,21.50
2010,01,18,03,06,16.90
2010,01,18,03,07,27.00
2010,01,18,03,08,18.00
2010,01,18,03,09,26.80
2010,01,18,03,10,27.00
2010,01,18,03,11,28.50
2010,01,18,03,12,42.30
2010,01,18,03,13,33.80
2010,01,18,03,14,29.10
2010,01,18,03,15,25.20
2010,01,18,03,16,29.40
2010,01,18,03,17,24.40
2010,01,18,03,18,22.30
2010,01,18,03,19,31.30
2010,01,18,03,20,34.00
2010,01,18,03,21,33.90
2010,01,18,03,22,26.10
2010,01,18,03,23,39.10
2010,01,18,03,24,34.90
2010,01,18,03,25,29.70
2010,01,18,03,26,20.20
2010,01,18,03,27,26.10
2010,01,18,03,28,26.60
2010,01,18,03,29,32.10
2010,01,18,03,30,34.80
2010,01,18,03,31,32.70
2010,01,18,03,32,28.10
2010,01,18,03,33,38.50
2010,01,18,03,34,29.30
2010,01,18,03,35,31.00
2010,01,18,03,36,36.30
2010,01,18,03,37,38.20
2010,01,18,03,38,33.00
2010,01,18,03,39,29.20
2010,01,18,03,40,27.50
2010,01,18,03,41,28.50
2010,01,18,03,42,26.00
2010,01,18,03,43,26.80
2010,01,18,03,44,31.90
2010,01,18,03,45,23.20
2010,01,18,03,46,33.20
2010,01,18,03,47,22.40
2010,01,18,03,48,28.00
2010,01,18,03,49,26.80
2010,01,18,03,50,32.90
2010,01,18,03,51,33.90
2010,01,18,03,52,29.60
2010,01,18,03,53,34.20
2010,01,18,03,54,30.50
2010,01,18,03,55,26.20
2010,01,18,03,56,33.50
2010,01,18,03,57,28.70
2010,01,18,03,58,27.00
2010,01,18,03,59,23.60
2010,01,18,04,00,26.10
2010,01,18,04,01,30.30
2010,01,18,04,02,30.70
2010,01,18,04,03,27.30
2010,01,18,04,04,29.00
2010,01,18,04,05,22.90
2010,01,18,04,06,29.10
2010,01,18,04,07,25.70
2010,01,18,04,08,21.80
2010,01,18,04,09,29.30
2010,01,18,04,10,28.60
2010,01,18,04,11,27.50
2010,01,18,04,12,38.00
2010,01,18,04,13,33.20
2010,01,18,04,14,27.20
2010,01,18,04,15,26.70
2010,01,18,04,16,22.00
2010,01,18,04,17,25.60
2010,01,18,04,18,33.50
2010,01,18,04,19,30.60
2010,01,18,04,20,27.80
2010,01,18,04,21,35.00
2010,01,18,04,22,24.60
2010,01,18,04,23,23.30
2010,01,18,04,24,34.30
2010,01,18,04,25,24.00
2010,01,18,04,26,26.80
2010,01,18,04,27,20.40
2010,01,18,04,28,25.60
2010,01,18,04,29,23.80
2010,01,18,04,30,27.40
2010,01,18,04,31,22.40
2010,01,18,04,32,26.60
2010,01,18,04,33,32.70
2010,01,18,04,34,22.30
2010,01,18,04,35,31.80
2010,01,18,04,36,29.60
2010,01,18,04,37,26.30
2010,01,18,04,38,20.80
2010,01,18,04,39,21.60
2010,01,18,04,40,22.20
2010,01,18,04,41,23.30
2010,01,18,04,42,26.20
2010,01,18,04,43,33.00
2010,01,18,04,44,29.70
2010,01,18,04,45,36.10
2010,01,18,04,46,26.90
2010,01,18,04,47,28.30
2010,01,18,04,48,29.10
2010,01,18,04,49,29.80
2010,01,18,04,50,30.50
2010,01,18,04,51,26.20
2010,01,18,04,52,33.00
2010,01,18,04,53,27.40
2010,01,18,04,54,27.00
2010,01,18,04,55,24.90
2010,01,18,04,56,24.40
2010,01,18,04,57,32.60
2010,01,18,04,58,30.20
2010,01,18,04,59,35.60
2010,01,18,05,00,34.30
2010,01,18,05,01,30.50
2010,01,18,05,02,23.70
2010,01,18,05,03,21.50
2010,01,18,05,04,34.60
2010,01,18,05,05,33.20
2010,01,18,05,06,27.40
2010,01,18,05,07,27.00
2010,01,18,05,08,28.20
2010,01,18,05,09,24.40
2010,01,18,05,10,24.60
2010,01,18,05,11,31.70
2010,01,18,05,12,28.20
2010,01,18,05,13,28.50
2010,01,18,05,14,35.60
2010,01,18,05,15,31.20
2010,01,18,05,16,33.10
2010,01,18,05,17,27.80
2010,01,18,05,18,24.50
2010,01,18,05,19,31.20
2010,01,18,05,20,28.50
2010,01,18,05,21,25.70
2010,01,18,05,22,34.00
2010,01,18,05,23,38.20
2010,01,18,05,24,39.40
2010,01,18,05,25,32.30
2010,01,18,05,26,23.10
2010,01,18,05,27,30.70
2010,01,18,05,28,26.00
2010,01,18,05,29,22.50
2010,01,18,05,30,24.10
2010,01,18,05,31,27.60
2010,01,18,05,32,29.50
2010,01,18,05,33,26.60
2010,01,18,05,34,30.70
2010,01,18,05,35,37.30
2010,01,18,05,36,30.30
2010,01,18,05,37,39.70
2010,01,18,05,38,28.40
2010,01,18,05,39,28.60
2010,01,18,05,40,23.80
2010,01,18,05,41,31.30
2010,01,18,05,42,30.10
2010,01,18,05,43,33.50
2010,01,18,05,44,25.30
2010,01,18,05,45,29.00
2010,01,18,05,46,29.90
2010,01,18,05,47,25.80
2010,01,18,05,48,25.00
2010,01,18,05,49,22.90
2010,01,18,05,50,29.40
2010,01,18,05,51,27.00
2010,01,18,05,52,32.90
2010,01,18,05,53,25.50
2010,01,18,05,54,22.90
2010,01,18,05,55,16.50
2010,01,18,05,56,16.90
2010,01,18,05,57,22.00
2010,01,18,05,58,27.40
2010,01,18,05,59,24.00
2010,01,18,06,00,23.70
2010,01,18,06,01,23.30
2010,01,18,06,02,24.50
2010,01,18,06,03,24.70
2010,01,18,06,04,27.50
2010,01,18,06,05,23.00
2010,01,18,06,06,25.20
2010,01,18,06,07,25.10
2010,01,18,06,08,21.70
2010,01,18,06,09,18.20
2010,01,18,06,10,25.00
2010,01,18,06,11,25.10
2010,01,18,06,12,25.60
2010,01,18,06,13,27.50
2010,01,18,06,14,16.40
2010,01,18,06,15,22.90
2010,01,18,06,16,21.60
2010,01,18,06,17,25.30
2010,01,18,06,18,20.60
2010,01,18,06,19,25.50
2010,01,18,06,20,18.60
2010,01,18,06,21,19.60
2010,01,18,06,22,22.40
2010,01,18,06,23,19.10
2010,01,18,06,24,14.40
2010,01,18,06,25,17.50
2010,01,18,06,26,13.70
2010,01,18,06,27,18.30
2010,01,18,06,28,15.70
2010,01,18,06,29,13.80
2010,01,18,06,30,17.60
2010,01,18,06,31,17.90
2010,01,18,06,32,17.90
2010,01,18,06,33,16.20
2010,01,18,06,34,11.80
2010,01,18,06,35,22.80
2010,01,18,06,36,17.90
2010,01,18,06,37,24.00
2010,01,18,06,38,20.80
2010,01,18,06,39,20.30
2010,01,18,06,40,15.60
2010,01,18,06,41,21.20
2010,01,18,06,42,17.80
2010,01,18,06,43,16.90
2010,01,18,06,44,7.50
2010,01,18,06,45,16.30
2010,01,18,06,46,19.60
2010,01,18,06,47,19.30
2010,01,18,06,48,12.40
2010,01,18,06,49,18.30
2010,01,18,06,50,17.40
2010,01,18,06,51,19.00
2010,01,18,06,52,15.20
2010,01,18,06,53,17.50
2010,01,18,06,54,15.20
2010,01,18,06,55,22.40
2010,01,18,06,56,22.50
2010,01,18,06,57,10.10
2010,01,18,06,58,19.70
2010,01,18,06,59,15.50
2010,01,18,07,00,18.90
2010,01,18,07,01,18.40
2010,01,18,07,02,16.40
2010,01,18,07,03,18.40
2010,01,18,07,04,12.70
2010,01,18,07,05,20.50
2010,01,18,07,06,20.80
2010,01,18,07,07,21.80
2010,01,18,07,08,18.30
2010,01,18,07,09,12.00
2010,01,18,07,10,8.40
2010,01,18,07,11,15.70
2010,01,18,07,12,19.20
2010,01,18,07,13,13.00
2010,01,18,07,14,6.90
2010,01,18,07,15,15.30
2010,01,18,07,16,17.10
2010,01,18,07,17,10.90
2010,01,18,07,18,13.10
2010,01,18,07,19,12.70
2010,01,18,07,20,11.20
2010,01,18,07,21,11.40
2010,01,18,07,22,17.20
2010,01,18,07,23,13.30
2010,01,18,07,24,12.10
2010,01,18,07,25,16.80
2010,01,18,07,26,13.10
2010,01,18,07,27,9.30
2010,01,18,07,28,4.60
2010,01,18,07,29,9.00
2010,01,18,07,30,12.60
2010,01,18,07,31,12.40
2010,01,18,07,32,7.60
2010,01,18,07,33,9.20
2010,01,18,07,34,8.70
2010,01,18,07,35,19.70
2010,01,18,07,36,11.00
2010,01,18,07,37,8.10
2010,01,18,07,38,12.70
2010,01,18,07,39,9.50
2010,01,18,07,40,10.90
2010,01,18,07,41,17.40
2010,01,18,07,42,11.70
2010,01,18,07,43,12.10
2010,01,18,07,44,18.20
2010,01,18,07,45,11.80
2010,01,18,07,46,15.20
2010,01,18,07,47,12.60
2010,01,18,07,48,11.60
2010,01,18,07,49,5.00
2010,01,18,07,50,13.00
2010,01,18,07,51,13.40
2010,01,18,07,52,13.00
2010,01,18,07,53,9.70
2010,01,18,07,54,10.20
2010,01,18,07,55,12.30
2010,01,18,07,56,8.60
2010,01,18,07,57,13.60
2010,01,18,07,58,16.60
2010,01,18,07,59,16.30
2010,01,18,08,00,15.80
2010,01,18,08,01,16.90
2010,01,18,08,02,17.40
2010,01,18,08,03,15.50
2010,01,18,08,04,14.10
2010,01,18,08,05,15.40
2010,01,18,08,06,20.10
2010,01,18,08,07,15.40
2010,01,18,08,08,10.30
2010,01,18,08,09,11.50
2010,01,18,08,10,14.10
2010,01,18,08,11,10.30
2010,01,18,08,12,15.80
2010,01,18,08,13,10.70
2010,01,18,08,14,12.80
2010,01,18,08,15,10.90
2010,01,18,08,16,12.70
2010,01,18,08,17,14.30
2010,01,18,08,18,10.20
2010,01,18,08,19,7.80
2010,01,18,08,20,12.20
2010,01,18,08,21,9.70
2010,01,18,08,22,6.70
2010,01,18,08,23,6.60
2010,01,18,08,24,9.30
2010,01,18,08,25,6.90
2010,01,18,08,26,9.60
2010,01,18,08,27,7.10
2010,01,18,08,28,8.40
2010,01,18,08,29,5.90
2010,01,18,08,30,4.70
2010,01,18,08,31,5.50
2010,01,18,08,32,3.90
2010,01,18,08,33,6.00
2010,01,18,08,34,10.90
2010,01,18,08,35,10.80
2010,01,18,08,36,6.60
2010,01,18,08,37,11.10
2010,01,18,08,38,7.90
2010,01,18,08,39,7.10
2010,01,18,08,40,7.60
2010,01,18,08,41,6.20
2010,01,18,08,42,11.30
2010,01,18,08,43,5.90
2010,01,18,08,44,6.60
2010,01,18,08,45,3.70
2010,01,18,08,46,3.50
2010,01,18,08,47,7.80
2010,01,18,08,48,5.50
2010,01,18,08,49,2.40
2010,01,18,08,50,2.80
2010,01,18,08,51,1.30
2010,01,18,08,52,6.90
2010,01,18,08,53,5.10
2010,01,18,08,54,2.80
2010,01,18,08,55,3.00
2010,01,18,08,56,6.00
2010,01,18,08,57,10.60
2010,01,18,08,58,10.30
2010,01,18,08,59,3.90
2010,01,18,09,00,7.00
2010,01,18,09,01,5.30
2010,01,18,09,02,7.20
2010,01,18,09,03,12.90
2010,01,18,09,04,7.40
2010,01,18,09,05,12.80
2010,01,18,09,06,7.60
2010,01,18,09,07,6.20
2010,01,18,09,08,7.20
2010,01,18,09,09,6.90
2010,01,18,09,10,13.00
2010,01,18,09,11,13.90
2010,01,18,09,12,7.20
2010,01,18,09,13,8.70
2010,01,18,09,14,6.40
2010,01,18,09,15,11.10
2010,01,18,09,16,7.10
2010,01,18,09,17,6.30
2010,01,18,09,18,9.50
2010,01,18,09,19,9.00
2010,01,18,09,20,7.70
2010,01,18,09,21,7.50
2010,01,18,09,22,7.10
2010,01,18,09,23,7.50
2010,01,18,09,24,4.80
2010,01,18,09,25,6.80
2010,01,18,09,26,4.90
2010,01,18,09,27,4.70
2010,01,18,09,28,6.70
2010,01,18,09,29,4.90
2010,01,18,09,30,9.60
2010,01,18,09,31,10.20
2010,01,18,09,32,6.10
2010,01,18,09,33,3.80
2010,01,18,09,34,6.00
2010,01,18,09,35,6.50
2010,01,18,09,36,3.90
2010,01,18,09,37,5.30
2010,01,18,09,38,5.00
2010,01,18,09,39,7.20
2010,01,18,09,40,5.30
2010,01,18,09,41,5.10
2010,01,18,09,42,8.90
2010,01,18,09,43,5.30
2010,01,18,09,44,9.70
2010,01,18,09,45,5.00
2010,01,18,09,46,8.50
2010,01,18,09,47,10.10
2010,01,18,09,48,8.40
2010,01,18,09,49,6.20
2010,01,18,09,50,13.30
2010,01,18,09,51,9.10
2010,01,18,09,52,13.70
2010,01,18,09,53,12.60
2010,01,18,09,54,13.00
2010,01,18,09,55,11.50
2010,01,18,09,56,15.20
2010,01,18,09,57,13.60
2010,01,18,09,58,9.40
2010,01,18,09,59,9.40
2010,01,18,10,00,12.30
2010,01,18,10,01,13.00
2010,01,18,10,02,8.50
2010,01,18,10,03,8.50
2010,01,18,10,04,9.80
2010,01,18,10,05,9.60
2010,01,18,10,06,9.30
2010,01,18,10,07,7.30
2010,01,18,10,08,12.90
2010,01,18,10,09,13.40
2010,01,18,10,10,10.00
2010,01,18,10,11,8.10
2010,01,18,10,12,7.20
2010,01,18,10,13,9.60
2010,01,18,10,14,11.80
2010,01,18,10,15,9.50
2010,01,18,10,16,8.00
2010,01,18,10,17,8.90
2010,01,18,10,18,10.20
2010,01,18,10,19,6.40
2010,01,18,10,20,3.40
2010,01,18,10,21,6.00
2010,01,18,10,22,6.30
2010,01,18,10,23,6.90
2010,01,18,10,24,7.60
2010,01,18,10,25,8.10
2010,01,18,10,26,6.20
2010,01,18,10,27,4.70
2010,01,18,10,28,4.50
2010,01,18,10,29,10.20
2010,01,18,10,30,4.40
2010,01,18,10,31,5.10
2010,01,18,10,32,5.10
2010,01,18,10,33,5.50
2010,01,18,10,34,5.40
2010,01,18,10,35,7.00
2010,01,18,10,36,4.30
2010,01,18,10,37,2.90
2010,01,18,10,38,6.50
2010,01,18,10,39,5.50
2010,01,18,10,40,2.90
2010,01,18,10,41,3.50
2010,01,18,10,42,1.30
2010,01,18,10,43,3.50
2010,01,18,10,44,4.70
2010,01,18,10,45,4.80
2010,01,18,10,46,5.30
2010,01,18,10,47,5.90
2010,01,18,10,48,3.50
2010,01,18,10,49,6.50
2010,01,18,10,50,3.30
2010,01,18,10,51,5.80
2010,01,18,10,52,4.90
2010,01,18,10,53,4.70
2010,01,18,10,54,8.30
2010,01,18,10,55,4.40
2010,01,18,10,56,7.10
2010,01,18,10,57,5.90
2010,01,18,10,58,7.40
2010,01,18,10,59,7.10
2010,01,18,11,00,4.40
2010,01,18,11,01,5.30
2010,01,18,11,02,8.00
2010,01,18,11,03,9.50
2010,01,18,11,04,8.10
2010,01,18,11,05,11.90
2010,01,18,11,06,5.90
2010,01,18,11,07,8.10
2010,01,18,11,08,9.80
2010,01,18,11,09,6.50
2010,01,18,11,10,7.60
2010,01,18,11,11,7.10
2010,01,18,11,12,6.40
2010,01,18,11,13,7.60
2010,01,18,11,14,8.30
2010,01,18,11,15,8.20
2010,01,18,11,16,8.10
2010,01,18,11,17,6.80
2010,01,18,11,18,8.70
2010,01,18,11,19,11.30
2010,01,18,11,20,5.90
2010,01,18,11,21,6.50
2010,01,18,11,22,6.80
2010,01,18,11,23,4.80
2010,01,18,11,24,7.70
2010,01,18,11,25,7.60
2010,01,18,11,26,12.50
2010,01,18,11,27,10.10
2010,01,18,11,28,6.40
2010,01,18,11,29,7.90
2010,01,18,11,30,8.70
2010,01,18,11,31,8.00
2010,01,18,11,32,8.90
2010,01,18,11,33,4.60
2010,01,18,11,34,6.40
2010,01,18,11,35,8.00
2010,01,18,11,36,8.70
2010,01,18,11,37,13.80
2010,01,18,11,38,10.50
2010,01,18,11,39,9.80
2010,01,18,11,40,10.40
2010,01,18,11,41,7.90
2010,01,18,11,42,9.10
2010,01,18,11,43,10.30
2010,01,18,11,44,10.70
2010,01,18,11,45,9.10
2010,01,18,11,46,14.40
2010,01,18,11,47,15.10
2010,01,18,11,48,12.30
2010,01,18,11,49,10.50
2010,01,18,11,50,8.40
2010,01,18,11,51,10.60
2010,01,18,11,52,11.00
2010,01,18,11,53,17.70
2010,01,18,11,54,12.30
2010,01,18,11,55,16.30
2010,01,18,11,56,12.70
2010,01,18,11,57,13.00
2010,01,18,11,58,11.50
2010,01,18,11,59,13.10
2010,01,18,12,00,12.30
2010,01,18,12,01,9.40
2010,01,18,12,02,8.80
2010,01,18,12,03,15.20
2010,01,18,12,04,11.30
2010,01,18,12,05,12.40
2010,01,18,12,06,12.70
2010,01,18,12,07,10.60
2010,01,18,12,08,9.50
2010,01,18,12,09,14.30
2010,01,18,12,10,9.00
2010,01,18,12,11,7.50
2010,01,18,12,12,9.60
2010,01,18,12,13,16.60
2010,01,18,12,14,17.20
2010,01,18,12,15,10.90
2010,01,18,12,16,15.10
2010,01,18,12,17,16.30
2010,01,18,12,18,14.20
2010,01,18,12,19,9.90
2010,01,18,12,20,8.40
2010,01,18,12,21,11.90
2010,01,18,12,22,10.30
2010,01,18,12,23,13.00
2010,01,18,12,24,19.30
2010,01,18,12,25,8.90
2010,01,18,12,26,11.90
2010,01,18,12,27,11.20
2010,01,18,12,28,10.80
2010,01,18,12,29,10.50
2010,01,18,12,30,15.00
2010,01,18,12,31,12.40
2010,01,18,12,32,7.10
2010,01,18,12,33,8.50
2010,01,18,12,34,11.20
2010,01,18,12,35,7.90
2010,01,18,12,36,10.00
2010,01,18,12,37,16.40
2010,01,18,12,38,13.70
2010,01,18,12,39,12.50
2010,01,18,12,40,8.70
2010,01,18,12,41,9.90
2010,01,18,12,42,8.40
2010,01,18,12,43,13.30
2010,01,18,12,44,20.90
2010,01,18,12,45,11.60
2010,01,18,12,46,14.00
2010,01,18,12,47,9.60
2010,01,18,12,48,11.10
2010,01,18,12,49,7.60
2010,01,18,12,50,9.60
2010,01,18,12,51,9.90
2010,01,18,12,52,14.30
2010,01,18,12,53,14.10
2010,01,18,12,54,13.80
2010,01,18,12,55,11.50
2010,01,18,12,56,9.90
2010,01,18,12,57,11.40
2010,01,18,12,58,10.90
2010,01,18,12,59,13.00
2010,01,18,13,00,11.90
2010,01,18,13,01,15.40
2010,01,18,13,02,9.70
2010,01,18,13,03,8.90
2010,01,18,13,04,9.50
2010,01,18,13,05,13.90
2010,01,18,13,06,13.70
2010,01,18,13,07,7.00
2010,01,18,13,08,11.00
2010,01,18,13,09,9.10
2010,01,18,13,10,8.60
2010,01,18,13,11,9.40
2010,01,18,13,12,10.80
2010,01,18,13,13,10.40
2010,01,18,13,14,6.80
2010,01,18,13,15,6.00
2010,01,18,13,16,15.40
2010,01,18,13,17,10.90
2010,01,18,13,18,7.60
2010,01,18,13,19,8.20
2010,01,18,13,20,6.80
2010,01,18,13,21,7.60
2010,01,18,13,22,6.90
2010,01,18,13,23,6.20
2010,01,18,13,24,5.80
2010,01,18,13,25,6.00
2010,01,18,13,26,14.40
2010,01,18,13,27,8.60
2010,01,18,13,28,4.10
2010,01,18,13,29,1.70
2010,01,18,13,30,6.90
2010,01,18,13,31,5.90
2010,01,18,13,32,10.60
2010,01,18,13,33,7.70
2010,01,18,13,34,6.20
2010,01,18,13,35,11.30
2010,01,18,13,36,11.30
2010,01,18,13,37,11.30
2010,01,18,13,38,11.30
2010,01,18,13,39,11.30
2010,01,18,13,40,9.90
2010,01,18,13,41,6.00
2010,01,18,13,42,6.40
2010,01,18,13,43,9.40
2010,01,18,13,44,8.30
2010,01,18,13,45,9.00
2010,01,18,13,46,5.80
2010,01,18,13,47,6.10
2010,01,18,13,48,9.20
2010,01,18,13,49,12.30
2010,01,18,13,50,7.10
2010,01,18,13,51,5.50
2010,01,18,13,52,8.50
2010,01,18,13,53,8.10
2010,01,18,13,54,9.10
2010,01,18,13,55,7.80
2010,01,18,13,56,10.30
2010,01,18,13,57,7.10
2010,01,18,13,58,6.50
2010,01,18,13,59,5.70
2010,01,18,14,00,8.40
2010,01,18,14,01,6.20
2010,01,18,14,02,7.50
2010,01,18,14,03,6.70
2010,01,18,14,04,5.10
2010,01,18,14,05,6.70
2010,01,18,14,06,8.80
2010,01,18,14,07,7.70
2010,01,18,14,08,9.80
2010,01,18,14,09,5.00
2010,01,18,14,10,9.10
2010,01,18,14,11,9.60
2010,01,18,14,12,6.90
2010,01,18,14,13,6.00
2010,01,18,14,14,5.40
2010,01,18,14,15,6.60
2010,01,18,14,16,7.20
2010,01,18,14,17,5.80
2010,01,18,14,18,6.40
2010,01,18,14,19,3.00
2010,01,18,14,20,2.70
2010,01,18,14,21,2.90
2010,01,18,14,22,7.90
2010,01,18,14,23,5.10
2010,01,18,14,24,2.80
2010,01,18,14,25,6.00
2010,01,18,14,26,2.50
2010,01,18,14,27,11.80
2010,01,18,14,28,5.60
2010,01,18,14,29,5.30
2010,01,18,14,30,4.30
2010,01,18,14,31,6.70
2010,01,18,14,32,6.50
2010,01,18,14,33,5.40
2010,01,18,14,34,3.30
2010,01,18,14,35,3.50
2010,01,18,14,36,5.20
2010,01,18,14,37,7.10
2010,01,18,14,38,6.30
2010,01,18,14,39,6.60
2010,01,18,14,40,2.70
2010,01,18,14,41,2.40
2010,01,18,14,42,5.10
2010,01,18,14,43,7.30
2010,01,18,14,44,8.10
2010,01,18,14,45,6.40
2010,01,18,14,46,6.40
2010,01,18,14,47,8.20
2010,01,18,14,48,6.80
2010,01,18,14,49,8.50
2010,01,18,14,50,5.30
2010,01,18,14,51,9.10
2010,01,18,14,52,10.70
2010,01,18,14,53,9.70
2010,01,18,14,54,2.60
2010,01,18,14,55,4.40
2010,01,18,14,56,6.20
2010,01,18,14,57,1.90
2010,01,18,14,58,5.10
2010,01,18,14,59,3.50
2010,01,18,15,00,3.50
2010,01,18,15,01,4.40
2010,01,18,15,02,8.30
2010,01,18,15,03,4.20
2010,01,18,15,04,2.50
2010,01,18,15,05,3.20
2010,01,18,15,06,0.30
2010,01,18,15,07,3.50
2010,01,18,15,08,8.40
2010,01,18,15,09,5.30
2010,01,18,15,10,5.80
2010,01,18,15,11,3.00
2010,01,18,15,12,4.60
2010,01,18,15,13,1.40
2010,01,18,15,14,0.20
2010,01,18,15,15,3.00
2010,01,18,15,16,3.40
2010,01,18,15,17,6.40
2010,01,18,15,18,6.40
2010,01,18,15,19,3.90
2010,01,18,15,20,5.50
2010,01,18,15,21,2.50
2010,01,18,15,22,2.50
2010,01,18,15,23,5.90
2010,01,18,15,24,4.30
2010,01,18,15,25,4.10
2010,01,18,15,26,3.20
2010,01,18,15,27,2.00
2010,01,18,15,28,4.10
2010,01,18,15,29,2.40
2010,01,18,15,30,1.70
2010,01,18,15,31,0.40
2010,01,18,15,32,5.00
2010,01,18,15,33,3.10
2010,01,18,15,34,1.40
2010,01,18,15,35,5.50
2010,01,18,15,36,2.70
2010,01,18,15,37,2.30
2010,01,18,15,38,4.50
2010,01,18,15,39,4.80
2010,01,18,15,40,5.80
2010,01,18,15,41,4.20
2010,01,18,15,42,5.20
2010,01,18,15,43,4.40
2010,01,18,15,44,3.40
2010,01,18,15,45,4.70
2010,01,18,15,46,6.00
2010,01,18,15,47,1.90
2010,01,18,15,48,1.60
2010,01,18,15,49,0.80
2010,01,18,15,50,2.70
2010,01,18,15,51,5.10
2010,01,18,15,52,4.40
2010,01,18,15,53,7.00
2010,01,18,15,54,5.50
2010,01,18,15,55,6.50
2010,01,18,15,56,4.70
2010,01,18,15,57,6.20
2010,01,18,15,58,7.00
2010,01,18,15,59,5.70
2010,01,18,16,00,7.80
2010,01,18,16,01,7.80
2010,01,18,16,02,7.70
2010,01,18,16,03,8.20
2010,01,18,16,04,9.20
2010,01,18,16,05,7.60
2010,01,18,16,06,6.50
2010,01,18,16,07,8.00
2010,01,18,16,08,8.00
2010,01,18,16,09,7.50
2010,01,18,16,10,6.50
2010,01,18,16,11,6.10
2010,01,18,16,12,4.70
2010,01,18,16,13,5.70
2010,01,18,16,14,6.90
2010,01,18,16,15,7.30
2010,01,18,16,16,6.80
2010,01,18,16,17,5.60
2010,01,18,16,18,5.10
2010,01,18,16,19,7.40
2010,01,18,16,20,4.40
2010,01,18,16,21,1.00
2010,01,18,16,22,2.30
2010,01,18,16,23,4.50
2010,01,18,16,24,3.70
2010,01,18,16,25,4.10
2010,01,18,16,26,1.50
2010,01,18,16,27,1.10
2010,01,18,16,28,3.50
2010,01,18,16,29,1.50
2010,01,18,16,30,3.20
2010,01,18,16,31,3.20
2010,01,18,16,32,4.10
2010,01,18,16,33,4.30
2010,01,18,16,34,3.50
2010,01,18,16,35,3.60
2010,01,18,16,36,3.10
2010,01,18,16,37,0.70
2010,01,18,16,38,0.80
2010,01,18,16,39,0.60
2010,01,18,16,40,2.50
2010,01,18,16,41,1.50
2010,01,18,16,42,1.20
2010,01,18,16,43,0.00
2010,01,18,16,44,0.50
2010,01,18,16,45,0.00
2010,01,18,16,46,0.00
2010,01,18,16,47,0.00
2010,01,18,16,48,0.00
2010,01,18,16,49,0.00
2010,01,18,16,50,1.40
2010,01,18,16,51,0.00
2010,01,18,16,52,0.00
2010,01,18,16,53,0.00
2010,01,18,16,54,0.70
2010,01,18,16,55,3.20
2010,01,18,16,56,1.80
2010,01,18,16,57,2.00
2010,01,18,16,58,0.50
2010,01,18,16,59,0.30
2010,01,18,17,00,0.00
2010,01,18,17,01,0.00
2010,01,18,17,02,0.00
2010,01,18,17,03,0.00
2010,01,18,17,04,0.80
2010,01,18,17,05,1.80
2010,01,18,17,06,3.00
2010,01,18,17,07,4.30
2010,01,18,17,08,1.70
2010,01,18,17,09,0.70
2010,01,18,17,10,0.60
2010,01,18,17,11,0.40
2010,01,18,17,12,0.60
2010,01,18,17,13,0.00
2010,01,18,17,14,0.00
2010,01,18,17,15,0.00
2010,01,18,17,16,0.20
2010,01,18,17,17,0.50
2010,01,18,17,18,0.20
2010,01,18,17,19,0.00
2010,01,18,17,20,0.00
2010,01,18,17,21,0.20
2010,01,18,17,22,0.70
2010,01,18,17,23,0.90
2010,01,18,17,24,0.00
2010,01,18,17,25,0.00
2010,01,18,17,26,0.20
2010,01,18,17,27,0.20
2010,01,18,17,28,0.60
2010,01,18,17,29,3.10
2010,01,18,17,30,0.60
2010,01,18,17,31,0.20
2010,01,18,17,32,0.70
2010,01,18,17,33,1.10
2010,01,18,17,34,0.70
2010,01,18,17,35,0.10
2010,01,18,17,36,0.00
2010,01,18,17,37,1.00
2010,01,18,17,38,1.70
2010,01,18,17,39,1.00
2010,01,18,17,40,0.80
2010,01,18,17,41,0.60
2010,01,18,17,42,0.90